Погода в Аймаках

Россия / Республика Дагестан     42°32′18″N   47°08′01″E
темп.,
°C
ветер,
м/с
пор.,
м/с
влажн.,
%
обл.,
%
осадки,
мм/ч
давл.,
гПа
погр.,
м
16 января, вс
вс1600:00−10юз22802 0.0 101025
03:00−12юз22874 0.0 101319
06:00−13ююз22834 0.0 101622
09:00−10юз11661 0.0 101678
12:00−7зсз22560 0.0 1015430
15:00−6св225664 0.0 1016958
18:00−10в129296 0.1 102026
21:00−9зюз119379 0.1 102128
17 января, пн
пн1700:00−12юз22888 0.0 102425
03:00−13юз22795 0.0 102519
06:00−14юз22775 0.0 102721
09:00−11юз22640 0.0 102792
12:00−7ююз11531 0.0 1023417
15:00−6всв01510 0.0 1022468
18:00−10ююз22780 0.0 102411
21:00−11ююз32740 0.0 102427
18 января, вт
вт1800:00−12юз33660 0.0 102228
03:00−13юз33630 0.0 102028
06:00−13ююз33630 0.0 101826
09:00−8юз33510 0.0 101457
12:00−2юз223962 0.0 1009142
15:00−1з115324 0.0 100812
18:00−6ююз227497 0.0 101111
21:00−7юз227781 0.0 101317
19 января, ср
ср1900:00−8юз32752 0.0 101620
03:00−9ююз227729 0.0 101612
06:00−9ю2276100 0.0 101614
09:00−6с11640 0.0 101659
12:00−4с21582 0.0 1014488
15:00−4ссв227593 0.1 1014513
18:00−7ссв129591 0.1 1017128
21:00−8ссз119681 0.3 101752
20 января, чт
чт2000:00−8сз1295100 0.1 101852
03:00−8сз1192100 0.1 101878
06:00−8ссз1195100 0.2 1019103
09:00−8ссв2291100 0.5 1019277
12:00−7ссв2285100 0.6 1018518
15:00−8св2280100 0.8 1019485
18:00−10св2293100 0.1 1021164
21:00−10ссв1193100 0.6 1023215